When you browse on this site, cookies collect data to enhance your experience and personalize the content and advertising you see.
Visit our Privacy Policy to learn more. By continuing to use the site, you agree to this use of cookies and data.
  • In Schweiz
  • Länderverzeichnis
  • Für 7 Tage
  • Wassertemperatur
  • Wetterkarte
  • Widgets
  • user-avatar
    Anmelden

    Stündliche Wetter Barisal

    Heute, 16 Februar, Sonntag

    Zeit Temperatur Niederschläge Wind Luftdruck Luftfeuchtigkeit
    00:00 +21°C° 0 mm 1 m/S 759 mmHg 55%
    01:00 +21°C° 0 mm 1 m/S 759 mmHg 56%
    02:00 +21°C° 0 mm 1 m/S 759 mmHg 58%
    03:00 +20°C° 0 mm 1 m/S 759 mmHg 60%
    04:00 +20°C° 0 mm 1 m/S 759 mmHg 62%
    05:00 +20°C° 0 mm 1 m/S 759 mmHg 65%
    06:00 +19°C° 0 mm 1 m/S 759 mmHg 67%
    07:00 +22°C° 0 mm 1 m/S 760 mmHg 61%
    08:00 +24°C° 0 mm 1 m/S 761 mmHg 55%
    09:00 +24°C° 0 mm 0 m/S 761 mmHg 49%
    10:00 +28°C° 0 mm 1 m/S 761 mmHg 42%
    11:00 +29°C° 0 mm 2 m/S 761 mmHg 35%
    12:00 +31°C° 0 mm 2 m/S 761 mmHg 27%
    13:00 +32°C° 0 mm 2 m/S 760 mmHg 25%
    14:00 +32°C° 0 mm 2 m/S 760 mmHg 24%
    15:00 +34°C° 0 mm 2 m/S 759 mmHg 23%
    16:00 +31°C° 0 mm 2 m/S 759 mmHg 28%
    17:00 +29°C° 0 mm 2 m/S 759 mmHg 34%
    18:00 +26°C° 0 mm 2 m/S 759 mmHg 40%
    19:00 +25°C° 0 mm 2 m/S 760 mmHg 45%
    20:00 +24°C° 0 mm 2 m/S 760 mmHg 49%
    21:00 +23°C° 0 mm 2 m/S 761 mmHg 54%
    22:00 +21°C° 0 mm 2 m/S 761 mmHg 55%
    23:00 +20°C° 0 mm 2 m/S 760 mmHg 56%

    Morgen, 17 Februar, Montag

    Zeit Temperatur Niederschläge Wind Luftdruck Luftfeuchtigkeit
    00:00 +20°C° 0 mm 2 m/S 760 mmHg 57%
    01:00 +19°C° 0 mm 2 m/S 760 mmHg 56%
    02:00 +20°C° 0 mm 1 m/S 759 mmHg 56%
    03:00 +20°C° 0 mm 1 m/S 759 mmHg 55%
    04:00 +20°C° 0 mm 1 m/S 759 mmHg 55%
    05:00 +19°C° 0 mm 1 m/S 759 mmHg 55%
    06:00 +19°C° 0 mm 1 m/S 760 mmHg 55%
    07:00 +22°C° 0 mm 1 m/S 760 mmHg 49%
    08:00 +24°C° 0 mm 1 m/S 761 mmHg 43%
    09:00 +26°C° 0 mm 2 m/S 761 mmHg 37%
    10:00 +28°C° 0 mm 2 m/S 761 mmHg 32%
    11:00 +30°C° 0 mm 2 m/S 761 mmHg 26%
    12:00 +32°C° 0 mm 2 m/S 761 mmHg 20%
    13:00 +34°C° 0 mm 2 m/S 760 mmHg 19%
    14:00 +34°C° 0 mm 2 m/S 759 mmHg 18%
    15:00 +35°C° 0 mm 2 m/S 759 mmHg 17%
    16:00 +31°C° 0 mm 2 m/S 759 mmHg 23%
    17:00 +29°C° 0 mm 2 m/S 759 mmHg 29%
    18:00 +26°C° 0 mm 2 m/S 759 mmHg 35%
    19:00 +25°C° 0 mm 2 m/S 759 mmHg 41%
    20:00 +24°C° 0 mm 3 m/S 759 mmHg 47%
    21:00 +21°C° 0 mm 3 m/S 760 mmHg 53%
    22:00 +21°C° 0 mm 2 m/S 760 mmHg 54%
    23:00 +20°C° 0 mm 2 m/S 760 mmHg 54%

    übermorgen, 18 Februar, Dienstag

    Zeit Temperatur Niederschläge Wind Luftdruck Luftfeuchtigkeit
    00:00 +20°C° 0 mm 2 m/S 759 mmHg 55%
    01:00 +20°C° 0 mm 2 m/S 759 mmHg 55%
    02:00 +19°C° 0 mm 2 m/S 759 mmHg 54%
    03:00 +19°C° 0 mm 2 m/S 759 mmHg 54%
    04:00 +19°C° 0 mm 2 m/S 759 mmHg 55%
    05:00 +18°C° 0 mm 2 m/S 759 mmHg 56%
    06:00 +18°C° 0 mm 2 m/S 759 mmHg 57%
    07:00 +20°C° 0 mm 2 m/S 760 mmHg 49%
    08:00 +24°C° 0 mm 2 m/S 760 mmHg 42%
    09:00 +26°C° 0 mm 2 m/S 761 mmHg 34%
    10:00 +28°C° 0 mm 2 m/S 760 mmHg 30%
    11:00 +30°C° 0 mm 2 m/S 760 mmHg 25%
    12:00 +32°C° 0 mm 2 m/S 760 mmHg 21%
    13:00 +34°C° 0 mm 2 m/S 759 mmHg 20%
    14:00 +34°C° 0 mm 2 m/S 759 mmHg 19%
    15:00 +35°C° 0 mm 3 m/S 758 mmHg 18%
    16:00 +33°C° 0 mm 3 m/S 758 mmHg 25%
    17:00 +29°C° 0 mm 3 m/S 758 mmHg 33%
    18:00 +27°C° 0 mm 3 m/S 758 mmHg 40%
    19:00 +25°C° 0 mm 3 m/S 758 mmHg 48%
    20:00 +24°C° 0 mm 3 m/S 759 mmHg 57%
    21:00 +23°C° 0 mm 2 m/S 759 mmHg 65%
    22:00 +21°C° 0 mm 2 m/S 759 mmHg 66%
    23:00 +21°C° 0 mm 2 m/S 759 mmHg 67%

    19 Februar, Mittwoch

    Zeit Temperatur Niederschläge Wind Luftdruck Luftfeuchtigkeit
    00:00 +20°C° 0 mm 2 m/S 759 mmHg 68%
    01:00 +20°C° 0 mm 2 m/S 759 mmHg 64%
    02:00 +20°C° 0 mm 2 m/S 759 mmHg 59%
    03:00 +21°C° 0 mm 1 m/S 759 mmHg 55%
    04:00 +20°C° 0 mm 1 m/S 759 mmHg 57%
    05:00 +19°C° 0 mm 2 m/S 759 mmHg 59%
    06:00 +18°C° 0 mm 2 m/S 759 mmHg 61%
    07:00 +21°C° 0 mm 2 m/S 760 mmHg 52%
    08:00 +24°C° 0 mm 1 m/S 760 mmHg 44%
    09:00 +27°C° 0 mm 1 m/S 761 mmHg 35%
    10:00 +29°C° 0 mm 1 m/S 761 mmHg 30%
    11:00 +31°C° 0 mm 1 m/S 761 mmHg 25%
    12:00 +33°C° 0 mm 1 m/S 760 mmHg 20%
    13:00 +33°C° 0 mm 1 m/S 760 mmHg 20%
    14:00 +34°C° 0 mm 2 m/S 759 mmHg 20%
    15:00 +35°C° 0 mm 3 m/S 758 mmHg 20%
    16:00 +31°C° 0 mm 3 m/S 758 mmHg 29%
    17:00 +29°C° 0 mm 4 m/S 758 mmHg 37%
    18:00 +27°C° 0 mm 4 m/S 758 mmHg 46%
    19:00 +25°C° 0 mm 3 m/S 759 mmHg 57%
    20:00 +24°C° 0 mm 3 m/S 759 mmHg 68%
    21:00 +23°C° 0 mm 2 m/S 760 mmHg 79%
    22:00 +21°C° 0 mm 2 m/S 760 mmHg 81%
    23:00 +21°C° 0 mm 2 m/S 760 mmHg 83%

    20 Februar, Donnerstag

    Zeit Temperatur Niederschläge Wind Luftdruck Luftfeuchtigkeit
    00:00 +20°C° 0 mm 2 m/S 760 mmHg 85%
    01:00 +20°C° 0 mm 2 m/S 759 mmHg 86%
    02:00 +20°C° 0 mm 2 m/S 759 mmHg 86%
    03:00 +19°C° 0 mm 2 m/S 759 mmHg 87%
    04:00 +19°C° 0 mm 2 m/S 759 mmHg 88%
    05:00 +20°C° 0 mm 1 m/S 759 mmHg 89%
    06:00 +20°C° 0 mm 1 m/S 759 mmHg 90%
    07:00 +22°C° 0 mm 1 m/S 760 mmHg 82%
    08:00 +21°C° 0 mm 0 m/S 761 mmHg 74%
    09:00 +23°C° 0 mm 0 m/S 762 mmHg 66%
    10:00 +26°C° 0 mm 0 m/S 761 mmHg 55%
    11:00 +30°C° 0 mm 1 m/S 761 mmHg 43%
    12:00 +32°C° 0 mm 1 m/S 761 mmHg 32%
    13:00 +33°C° 0 mm 1 m/S 760 mmHg 30%
    14:00 +33°C° 0 mm 1 m/S 759 mmHg 28%
    15:00 +35°C° 0 mm 2 m/S 759 mmHg 25%
    16:00 +31°C° 0 mm 2 m/S 759 mmHg 34%
    17:00 +29°C° 0 mm 3 m/S 759 mmHg 43%
    18:00 +27°C° 0 mm 3 m/S 759 mmHg 52%
    19:00 +26°C° 0 mm 3 m/S 759 mmHg 58%
    20:00 +25°C° 0 mm 2 m/S 760 mmHg 65%
    21:00 +23°C° 0 mm 2 m/S 760 mmHg 72%
    22:00 +23°C° 0 mm 2 m/S 760 mmHg 73%
    23:00 +23°C° 0 mm 2 m/S 760 mmHg 75%

    21 Februar, Freitag

    Zeit Temperatur Niederschläge Wind Luftdruck Luftfeuchtigkeit
    00:00 +21°C° 0 mm 2 m/S 761 mmHg 76%
    01:00 +21°C° 0 mm 2 m/S 760 mmHg 78%
    02:00 +21°C° 0 mm 2 m/S 760 mmHg 79%
    03:00 +21°C° 0 mm 1 m/S 760 mmHg 81%
    04:00 +21°C° 0 mm 1 m/S 760 mmHg 82%
    05:00 +20°C° 0 mm 1 m/S 760 mmHg 82%
    06:00 +20°C° 0 mm 1 m/S 760 mmHg 83%
    07:00 +22°C° 0 mm 1 m/S 761 mmHg 73%
    08:00 +25°C° 0 mm 1 m/S 762 mmHg 63%
    09:00 +27°C° 0 mm 1 m/S 763 mmHg 53%
    10:00 +29°C° 0 mm 1 m/S 762 mmHg 45%
    11:00 +31°C° 0 mm 1 m/S 762 mmHg 36%
    12:00 +33°C° 0 mm 1 m/S 762 mmHg 28%
    19:00 +27°C° 0 mm 2 m/S 760 mmHg 41%
    20:00 +26°C° 0 mm 2 m/S 761 mmHg 46%
    21:00 +25°C° 0 mm 3 m/S 761 mmHg 52%
    22:00 +24°C° 0 mm 2 m/S 761 mmHg 54%
    23:00 +24°C° 0 mm 2 m/S 761 mmHg 55%
    Mehr zeigen